| time (UTC) | temp F | wind direction | speed MPH | gust MPH | rain 1hr in | rain 24hr in | rain mn in | humidity % | barometer mb |
| 20260902161803 | 80 | 6 | 0.0 | 7.0 | 0.00 | 0.00 | 0.00 | 64 | 1021.1 |
| 20260902160904 | 80 | 349 | 7.0 | 7.0 | 0.00 | 0.00 | 0.00 | 63 | 1021.1 |
| 20260902160005 | 81 | 334 | 3.0 | 5.0 | 0.00 | 0.00 | 0.00 | 61 | 1021.1 |
| 20260902155403 | 82 | 358 | 3.0 | 8.0 | 0.00 | 0.00 | 0.00 | 62 | 1021.1 |
| 20260902154504 | 83 | 5 | 1.0 | 6.0 | 0.00 | 0.00 | 0.00 | 61 | 1021.1 |
| 20260902153605 | 83 | 353 | 5.0 | 5.0 | 0.00 | 0.00 | 0.00 | 61 | 1021.1 |
| 20260902152703 | 82 | 11 | 2.0 | 5.0 | 0.00 | 0.00 | 0.00 | 62 | 1021.1 |
| 20260902151805 | 82 | 352 | 3.0 | 5.0 | 0.00 | 0.00 | 0.00 | 61 | 1021.1 |
| 20260902150905 | 83 | 355 | 2.0 | 7.0 | 0.00 | 0.00 | 0.00 | 62 | 1021.1 |
| 20260902150003 | 82 | 359 | 1.0 | 6.0 | 0.00 | 0.00 | 0.00 | 63 | 1021.1 |
| 20260902145403 | 82 | 6 | 4.0 | 6.0 | 0.00 | 0.00 | 0.00 | 63 | 1021.1 |
| 20260902144713 | 82 | 7 | 5.0 | 5.0 | 0.00 | 0.00 | 0.00 | 64 | 1021.1 |
| 20260902143603 | 81 | 333 | 21.0 | 21.0 | 0.00 | 0.00 | 0.00 | 64 | 1021.1 |
| 20260902142705 | 82 | 342 | 3.0 | 13.0 | 0.00 | 0.00 | 0.00 | 65 | 1021.1 |
| 20260902141803 | 82 | 344 | 0.0 | 21.0 | 0.00 | 0.00 | 0.00 | 65 | 1021.1 |
| 20260902140903 | 80 | 337 | 3.0 | 4.0 | 0.00 | 0.00 | 0.00 | 65 | 1021.1 |
| 20260902140003 | 81 | 352 | 4.0 | 27.0 | 0.00 | 0.00 | 0.00 | 66 | 1021.1 |
| 20260902135403 | 81 | 355 | 0.0 | 57.0 | 0.00 | 0.00 | 0.00 | 65 | 1021.1 |
| 20260902134713 | 81 | 352 | 57.0 | 57.0 | 0.00 | 0.00 | 0.00 | 66 | 1021.1 |
| 20260902133603 | 81 | 353 | 22.0 | 35.0 | 0.00 | 0.00 | 0.00 | 65 | 1021.1 |
| 20260902132915 | 80 | 357 | 5.0 | 35.0 | 0.00 | 0.00 | 0.00 | 66 | 1021.1 |
| 20260902131803 | 80 | 336 | 24.0 | 32.0 | 0.00 | 0.00 | 0.00 | 66 | 1022.1 |
| 20260902131114 | 80 | 337 | 28.0 | 33.0 | 0.00 | 0.00 | 0.00 | 65 | 1021.1 |
| 20260902130003 | 80 | 330 | 27.0 | 39.0 | 0.00 | 0.00 | 0.00 | 65 | 1021.1 |
| 20260902125405 | 80 | 323 | 33.0 | 39.0 | 0.00 | 0.00 | 0.00 | 66 | 1021.1 |
| 20260902124503 | 80 | 3 | 2.0 | 26.0 | 0.00 | 0.00 | 0.00 | 66 | 1021.1 |
| 20260902123603 | 80 | 330 | 3.0 | 60.0 | 0.00 | 0.00 | 0.00 | 66 | 1021.1 |
| 20260902122705 | 80 | 334 | 39.0 | 69.0 | 0.00 | 0.00 | 0.00 | 66 | 1021.1 |
| 20260902121803 | 81 | 333 | 1.0 | 59.0 | 0.00 | 0.00 | 0.00 | 66 | 1021.1 |
| 20260902120903 | 81 | 318 | 0.0 | 74.0 | 0.00 | 0.00 | 0.00 | 67 | 1021.1 |
| 20260902120005 | 80 | 305 | 33.0 | 50.0 | 0.00 | 0.00 | 0.00 | 67 | 1021.1 |
| 20260902115403 | 80 | 320 | 21.0 | 24.0 | 0.00 | 0.00 | 0.00 | 68 | 1021.1 |
| 20260902114504 | 80 | 309 | 0.0 | 54.0 | 0.00 | 0.00 | 0.00 | 69 | 1021.1 |
| 20260902113605 | 80 | 289 | 0.0 | 39.0 | 0.00 | 0.00 | 0.00 | 69 | 1022.1 |
| 20260902112703 | 79 | 316 | 0.0 | 38.0 | 0.00 | 0.00 | 0.00 | 69 | 1022.1 |
| 20260902111803 | 79 | 282 | 35.0 | 62.0 | 0.00 | 0.00 | 0.00 | 69 | 1022.1 |
| 20260902111115 | 79 | 19 | 0.0 | 74.0 | 0.00 | 0.00 | 0.00 | 70 | 1022.1 |
| 20260902110005 | 78 | 287 | 11.0 | 42.0 | 0.00 | 0.00 | 0.00 | 71 | 1022.1 |
| 20260902105403 | 79 | 255 | 0.0 | 49.0 | 0.00 | 0.00 | 0.00 | 72 | 1022.1 |
| 20260902104503 | 78 | 281 | 0.0 | 46.0 | 0.00 | 0.00 | 0.00 | 72 | 1022.1 |
| 20260902103603 | 77 | 245 | 1.0 | 50.0 | 0.00 | 0.00 | 0.00 | 73 | 1022.1 |
| 20260902102705 | 77 | 267 | 53.0 | 77.0 | 0.00 | 0.00 | 0.00 | 73 | 1022.1 |
| 20260902101805 | 77 | 286 | 32.0 | 39.0 | 0.00 | 0.00 | 0.00 | 73 | 1022.1 |
| 20260902100905 | 77 | 254 | 0.0 | 38.0 | 0.00 | 0.00 | 0.00 | 74 | 1022.1 |
| 20260902100003 | 79 | 22 | 0.0 | 44.0 | 0.00 | 0.00 | 0.00 | 73 | 1022.1 |
| 20260902095405 | 79 | 14 | 0.0 | 44.0 | 0.00 | 0.00 | 0.00 | 75 | 1022.1 |
| 20260902094715 | 78 | 358 | 0.0 | 77.0 | 0.00 | 0.00 | 0.00 | 75 | 1022.1 |
| 20260902093813 | 77 | 337 | 39.0 | 39.0 | 0.00 | 0.00 | 0.00 | 78 | 1022.1 |
| 20260902092705 | 76 | 0 | 0.0 | 0.0 | 0.00 | 0.00 | 0.00 | 79 | 1022.1 |
| 20260902091803 | 74 | 352 | 0.0 | 24.0 | 0.00 | 0.00 | 0.00 | 82 | 1021.1 |
| 20260902090906 | 73 | 22 | 0.0 | 77.0 | 0.00 | 0.00 | 0.00 | 86 | 1021.1 |
| 20260902090005 | 72 | 13 | 40.0 | 78.0 | 0.00 | 0.00 | 0.00 | 86 | 1021.1 |
| 20260902085403 | 71 | 12 | 78.0 | 78.0 | 0.00 | 0.00 | 0.00 | 89 | 1021.1 |
| 20260902084503 | 70 | 360 | 39.0 | 39.0 | 0.00 | 0.00 | 0.00 | 91 | 1021.1 |
| 20260902083814 | 68 | 0 | 0.0 | 0.0 | 0.00 | 0.00 | 0.00 | 94 | 1021.1 |
| 20260902082914 | 67 | 0 | 0.0 | 0.0 | 0.00 | 0.00 | 0.00 | 96 | 1021.1 |
| 20260902081805 | 66 | 0 | 0.0 | 0.0 | 0.00 | 0.00 | 0.00 | 98 | 1021.1 |
| 20260902080906 | 65 | 0 | 0.0 | 0.0 | 0.00 | 0.00 | 0.00 | 98 | 1021.1 |
| 20260902080003 | 64 | 0 | 0.0 | 0.0 | 0.00 | 0.00 | 0.00 | 98 | 1021.1 |
| 20260902075405 | 63 | 0 | 0.0 | 0.0 | 0.00 | 0.00 | 0.00 | 98 | 1021.1 |
| 20260902074503 | 62 | 0 | 0.0 | 0.0 | 0.00 | 0.00 | 0.00 | 98 | 1021.1 |
| 20260902073814 | 61 | 0 | 0.0 | 0.0 | 0.00 | 0.00 | 0.00 | 98 | 1021.1 |
| 20260902072915 | 60 | 0 | 0.0 | 0.0 | 0.00 | 0.00 | 0.00 | 98 | 1021.1 |
| 20260902071803 | 59 | 0 | 0.0 | 0.0 | 0.00 | 0.00 | 0.00 | 98 | 1021.1 |
| 20260902070903 | 58 | 0 | 0.0 | 0.0 | 0.00 | 0.00 | 0.00 | 98 | 1021.1 |
| 20260902070217 | 57 | 0 | 0.0 | 0.0 | 0.00 | 0.00 | 0.00 | 98 | 1021.1 |
| 20260902065613 | 57 | 0 | 0.0 | 0.0 | 0.00 | 0.00 | 0.00 | 98 | 1021.1 |
| 20260902064714 | 56 | 0 | 0.0 | 0.0 | 0.00 | 0.00 | 0.00 | 98 | 1021.1 |
| 20260902063604 | 55 | 0 | 0.0 | 0.0 | 0.00 | 0.00 | 0.00 | 98 | 1021.1 |
| 20260902062705 | 55 | 0 | 0.0 | 0.0 | 0.00 | 0.00 | 0.00 | 98 | 1021.1 |
| 20260902061805 | 55 | 0 | 0.0 | 0.0 | 0.00 | 0.00 | 0.00 | 98 | 1021.1 |
| 20260902060903 | 55 | 0 | 0.0 | 0.0 | 0.00 | 0.00 | 0.00 | 98 | 1021.1 |
| 20260902060003 | 55 | 0 | 0.0 | 0.0 | 0.00 | 0.00 | 0.00 | 98 | 1021.1 |
| 20260902055403 | 55 | 0 | 0.0 | 0.0 | 0.00 | 0.00 | 0.00 | 98 | 1021.1 |
| 20260902054503 | 55 | 0 | 0.0 | 0.0 | 0.00 | 0.00 | 0.00 | 98 | 1021.1 |
| 20260902053603 | 55 | 0 | 0.0 | 0.0 | 0.00 | 0.00 | 0.00 | 98 | 1021.1 |
| 20260902052703 | 55 | 0 | 0.0 | 0.0 | 0.00 | 0.00 | 0.00 | 98 | 1021.1 |
| 20260902051803 | 55 | 0 | 0.0 | 0.0 | 0.00 | 0.00 | 0.00 | 98 | 1021.1 |
| 20260902050905 | 55 | 0 | 0.0 | 0.0 | 0.00 | 0.00 | 0.00 | 98 | 1021.1 |
| 20260902050006 | 56 | 0 | 0.0 | 0.0 | 0.00 | 0.00 | 0.00 | 98 | 1021.1 |
| 20260902045403 | 56 | 0 | 0.0 | 0.0 | 0.00 | 0.00 | 0.00 | 98 | 1021.1 |
| 20260902044715 | 56 | 0 | 0.0 | 0.0 | 0.00 | 0.00 | 0.00 | 98 | 1021.1 |
| 20260902043603 | 56 | 0 | 0.0 | 0.0 | 0.00 | 0.00 | 0.00 | 98 | 1021.1 |
| 20260902042914 | 56 | 0 | 0.0 | 0.0 | 0.00 | 0.00 | 0.00 | 98 | 1021.1 |
| 20260902042013 | 56 | 0 | 0.0 | 0.0 | 0.00 | 0.00 | 0.00 | 98 | 1020.1 |
| 20260902040904 | 56 | 0 | 0.0 | 0.0 | 0.00 | 0.00 | 0.00 | 98 | 1021.1 |
| 20260902040005 | 56 | 0 | 0.0 | 0.0 | 0.00 | 0.00 | 0.00 | 98 | 1021.1 |
| 20260902035403 | 57 | 0 | 0.0 | 0.0 | 0.00 | 0.00 | 0.00 | 98 | 1021.1 |
| 20260902034503 | 57 | 0 | 0.0 | 0.0 | 0.00 | 0.00 | 0.00 | 98 | 1021.1 |
| 20260902033603 | 57 | 0 | 0.0 | 0.0 | 0.00 | 0.00 | 0.00 | 98 | 1021.1 |
| 20260902032705 | 57 | 0 | 0.0 | 0.0 | 0.00 | 0.00 | 0.00 | 98 | 1021.1 |
| 20260902031803 | 57 | 0 | 0.0 | 0.0 | 0.00 | 0.00 | 0.00 | 98 | 1021.1 |
| 20260902030904 | 58 | 0 | 0.0 | 0.0 | 0.00 | 0.00 | 0.00 | 98 | 1021.1 |
| 20260902030003 | 58 | 0 | 0.0 | 0.0 | 0.00 | 0.00 | 0.00 | 98 | 1021.1 |
| 20260902025403 | 58 | 0 | 0.0 | 0.0 | 0.00 | 0.00 | 0.00 | 98 | 1021.1 |
| 20260902024503 | 58 | 0 | 0.0 | 0.0 | 0.00 | 0.00 | 0.00 | 98 | 1021.1 |
| 20260902023814 | 58 | 0 | 0.0 | 0.0 | 0.00 | 0.00 | 0.00 | 98 | 1021.1 |
| 20260902022703 | 58 | 0 | 0.0 | 0.0 | 0.00 | 0.00 | 0.00 | 98 | 1021.1 |
| 20260902021805 | 58 | 0 | 0.0 | 0.0 | 0.00 | 0.00 | 0.00 | 98 | 1020.1 |
| 20260902020903 | 58 | 0 | 0.0 | 0.0 | 0.00 | 0.00 | 0.00 | 98 | 1020.1 |
| 20260902020003 | 58 | 0 | 0.0 | 0.0 | 0.00 | 0.00 | 0.00 | 98 | 1020.1 |
| 20260902015403 | 58 | 0 | 0.0 | 0.0 | 0.00 | 0.00 | 0.00 | 98 | 1020.1 |
| 20260902014504 | 59 | 0 | 0.0 | 0.0 | 0.00 | 0.00 | 0.00 | 98 | 1020.1 |
| 20260902013603 | 59 | 0 | 0.0 | 0.0 | 0.00 | 0.00 | 0.00 | 98 | 1020.1 |
| 20260902012705 | 59 | 0 | 0.0 | 0.0 | 0.00 | 0.00 | 0.00 | 97 | 1020.1 |
| 20260902011805 | 59 | 0 | 0.0 | 0.0 | 0.00 | 0.00 | 0.00 | 97 | 1020.1 |
| 20260902010909 | 59 | 0 | 0.0 | 0.0 | 0.00 | 0.00 | 0.00 | 97 | 1020.1 |
| 20260902010213 | 60 | 0 | 0.0 | 0.0 | 0.00 | 0.00 | 0.00 | 96 | 1020.1 |
| 20260902005403 | 60 | 0 | 0.0 | 0.0 | 0.00 | 0.00 | 0.00 | 96 | 1020.1 |
| 20260902004503 | 60 | 0 | 0.0 | 0.0 | 0.00 | 0.00 | 0.00 | 96 | 1020.1 |
| 20260902003603 | 60 | 0 | 0.0 | 0.0 | 0.00 | 0.00 | 0.00 | 96 | 1021.1 |
| 20260902002915 | 60 | 0 | 0.0 | 0.0 | 0.00 | 0.00 | 0.00 | 95 | 1021.1 |
| 20260902001803 | 61 | 0 | 0.0 | 0.0 | 0.00 | 0.00 | 0.00 | 95 | 1020.1 |
| 20260902000905 | 61 | 0 | 0.0 | 0.0 | 0.00 | 0.00 | 0.00 | 94 | 1020.1 |
| 20260902000003 | 61 | 0 | 0.0 | 0.0 | 0.00 | 0.00 | 0.00 | 94 | 1020.1 |
| 20260901235614 | 61 | 0 | 0.0 | 0.0 | 0.00 | 0.00 | 0.00 | 94 | 1020.1 |
| 20260901234503 | 62 | 0 | 0.0 | 0.0 | 0.00 | 0.00 | 0.00 | 93 | 1020.1 |
| 20260901233813 | 62 | 0 | 0.0 | 0.0 | 0.00 | 0.00 | 0.00 | 93 | 1020.1 |
| 20260901232703 | 62 | 0 | 0.0 | 0.0 | 0.00 | 0.00 | 0.00 | 93 | 1020.1 |
| 20260901231804 | 62 | 0 | 0.0 | 0.0 | 0.00 | 0.00 | 0.00 | 92 | 1020.1 |
| 20260901230903 | 63 | 0 | 0.0 | 0.0 | 0.00 | 0.00 | 0.00 | 92 | 1020.1 |
| 20260901230005 | 63 | 0 | 0.0 | 0.0 | 0.00 | 0.00 | 0.00 | 91 | 1020.1 |
| 20260901225405 | 63 | 0 | 0.0 | 0.0 | 0.00 | 0.00 | 0.00 | 91 | 1020.1 |
| 20260901224503 | 64 | 0 | 0.0 | 0.0 | 0.00 | 0.00 | 0.00 | 91 | 1020.1 |
| 20260901223603 | 64 | 0 | 0.0 | 0.0 | 0.00 | 0.00 | 0.00 | 91 | 1020.1 |
| 20260901222703 | 65 | 0 | 0.0 | 0.0 | 0.00 | 0.00 | 0.00 | 90 | 1020.1 |
| 20260901221803 | 65 | 0 | 0.0 | 0.0 | 0.00 | 0.00 | 0.00 | 90 | 1020.1 |
| 20260901220903 | 65 | 0 | 0.0 | 0.0 | 0.00 | 0.00 | 0.00 | 90 | 1020.1 |
| 20260901220006 | 65 | 0 | 0.0 | 0.0 | 0.00 | 0.00 | 0.00 | 90 | 1020.1 |
| 20260901215403 | 66 | 0 | 0.0 | 0.0 | 0.00 | 0.00 | 0.00 | 89 | 1020.1 |
| 20260901214505 | 66 | 0 | 0.0 | 0.0 | 0.00 | 0.00 | 0.00 | 89 | 1020.1 |
| 20260901213814 | 66 | 0 | 0.0 | 0.0 | 0.00 | 0.00 | 0.00 | 88 | 1020.1 |
| 20260901212703 | 67 | 0 | 0.0 | 0.0 | 0.00 | 0.00 | 0.00 | 87 | 1020.1 |
| 20260901211803 | 67 | 0 | 0.0 | 0.0 | 0.00 | 0.00 | 0.00 | 87 | 1020.1 |
| 20260901210904 | 67 | 0 | 0.0 | 0.0 | 0.00 | 0.00 | 0.00 | 86 | 1020.1 |
| 20260901210005 | 68 | 0 | 0.0 | 0.0 | 0.00 | 0.00 | 0.00 | 86 | 1020.1 |
| 20260901205405 | 68 | 0 | 0.0 | 0.0 | 0.00 | 0.00 | 0.00 | 85 | 1020.1 |
| 20260901204714 | 68 | 0 | 0.0 | 0.0 | 0.00 | 0.00 | 0.00 | 85 | 1020.1 |
| 20260901203603 | 69 | 0 | 0.0 | 0.0 | 0.00 | 0.00 | 0.00 | 85 | 1020.1 |
| 20260901202705 | 69 | 0 | 0.0 | 0.0 | 0.00 | 0.00 | 0.00 | 84 | 1020.1 |
| 20260901201803 | 69 | 0 | 0.0 | 0.0 | 0.00 | 0.00 | 0.00 | 84 | 1020.1 |
| 20260901200903 | 69 | 0 | 0.0 | 0.0 | 0.00 | 0.00 | 0.00 | 83 | 1020.1 |
| 20260901200213 | 69 | 0 | 0.0 | 0.0 | 0.00 | 0.00 | 0.00 | 83 | 1020.1 |
| 20260901195405 | 70 | 0 | 0.0 | 0.0 | 0.00 | 0.00 | 0.00 | 82 | 1019.1 |
| 20260901194503 | 70 | 360 | 0.0 | 56.0 | 0.00 | 0.00 | 0.00 | 82 | 1019.1 |
| 20260901193603 | 70 | 1 | 0.0 | 56.0 | 0.00 | 0.00 | 0.00 | 82 | 1019.1 |
| 20260901192705 | 70 | 18 | 3.0 | 37.0 | 0.00 | 0.00 | 0.00 | 81 | 1019.1 |
| 20260901191803 | 70 | 345 | 0.0 | 23.0 | 0.00 | 0.00 | 0.00 | 81 | 1019.1 |
| 20260901190903 | 71 | 353 | 0.0 | 4.0 | 0.00 | 0.00 | 0.00 | 81 | 1019.1 |
| 20260901190215 | 71 | 2 | 3.0 | 4.0 | 0.00 | 0.00 | 0.00 | 81 | 1019.1 |
| 20260901185614 | 71 | 344 | 0.0 | 4.0 | 0.00 | 0.00 | 0.00 | 81 | 1019.1 |
| 20260901184504 | 71 | 360 | 51.0 | 51.0 | 0.00 | 0.00 | 0.00 | 80 | 1019.1 |
| 20260901183605 | 71 | 2 | 3.0 | 6.0 | 0.00 | 0.00 | 0.00 | 80 | 1019.1 |
| 20260901182703 | 72 | 2 | 3.0 | 30.0 | 0.00 | 0.00 | 0.00 | 79 | 1019.1 |
| 20260901182016 | 72 | 355 | 0.0 | 4.0 | 0.00 | 0.00 | 0.00 | 79 | 1018.1 |
| 20260901180905 | 72 | 353 | 36.0 | 36.0 | 0.00 | 0.00 | 0.00 | 78 | 1018.1 |
| 20260901180003 | 73 | 15 | 6.0 | 6.0 | 0.00 | 0.00 | 0.00 | 77 | 1018.1 |
| 20260901175404 | 73 | 356 | 3.0 | 39.0 | 0.00 | 0.00 | 0.00 | 76 | 1018.1 |
| 20260901174503 | 74 | 6 | 0.0 | 6.0 | 0.00 | 0.00 | 0.00 | 75 | 1018.1 |
| 20260901173603 | 74 | 7 | 3.0 | 7.0 | 0.00 | 0.00 | 0.00 | 75 | 1018.1 |
| 20260901172703 | 75 | 9 | 4.0 | 5.0 | 0.00 | 0.00 | 0.00 | 74 | 1018.1 |
| 20260901171803 | 75 | 355 | 2.0 | 6.0 | 0.00 | 0.00 | 0.00 | 74 | 1018.1 |
| 20260901170905 | 76 | 346 | 0.0 | 26.0 | 0.00 | 0.00 | 0.00 | 73 | 1018.1 |
| 20260901170003 | 76 | 345 | 26.0 | 32.0 | 0.00 | 0.00 | 0.00 | 72 | 1018.1 |
| 20260901165403 | 76 | 359 | 11.0 | 39.0 | 0.00 | 0.00 | 0.00 | 72 | 1018.1 |
| 20260901164505 | 75 | 348 | 1.0 | 35.0 | 0.00 | 0.00 | 0.00 | 72 | 1018.1 |
| 20260901163605 | 76 | 341 | 4.0 | 4.0 | 0.00 | 0.00 | 0.00 | 71 | 1018.1 |
| 20260901162703 | 76 | 3 | 4.0 | 9.0 | 0.00 | 0.00 | 0.00 | 71 | 1018.1 |